This demonstration page uses our WeatherBlox Daily Observations layout. Learn more.

Left ArrowRight Arrow

34.16533, -84.80231

Hourly Observations for July 21, 2017

Temp ( °F °C ) Dew Point ( °F °C ) Humidity (%) Winds ( mph kmh ) Pressure ( in mb ) Visibility ( mi km ) Precip ( " mm )
12:53 am 00:53 Clear with Mist and Fog 75 23.9 75 23.9 100 100 Calm 30.02 1017 6 10 0.00 0.00
1:53 am 01:53 Clear 75 23.9 75 23.9 100 100 Calm 30.01 1016 7 11 0.00 0.00
2:53 am 02:53 Clear with Mist and Fog 73 22.8 73 22.8 100 100 Calm 29.99 1016 6 10 0.00 0.00
3:53 am 03:53 Clear with Mist and Fog 73 22.8 73 22.8 100 100 Calm 29.98 1015 6 10 0.00 0.00
4:53 am 04:53 Clear with Mist and Fog 73 22.8 73 22.8 100 100 Calm 29.98 1015 5 8 0.00 0.00
5:53 am 05:53 Clear with Mist and Fog 73 22.8 73 22.8 100 100 Calm 29.99 1016 5 8 0.00 0.00
6:53 am 06:53 Sunny with Mist and Fog 73 22.8 73 22.8 100 100 Calm 30.01 1016 4 6 0.00 0.00
7:53 am 07:53 Sunny with Mist and Fog 75 23.9 75 23.9 100 100 Calm 30.03 1017 5 8 0.00 0.00
8:53 am 08:53 Sunny with Mist and Fog 78 25.6 76 24.4 93 93 Calm 30.05 1018 6 10 0.00 0.00
9:53 am 09:53 Sunny 82 27.8 76 24.4 82 82 VRB 3 6 30.04 1017 8 13 0.00 0.00
10:53 am 10:53 Sunny 85 29.4 76 24.4 75 75 Calm 30.04 1017 9 14 0.00 0.00
11:53 am 11:53 Sunny 88 31.1 76 24.4 68 68 VRB 3 6 30.03 1017 10 16 0.00 0.00
12:53 pm 12:53 Partly Cloudy 90 32.2 75 23.9 62 62 Calm 30.03 1017 10 16 0.00 0.00
1:53 pm 13:53 Sunny 91 32.8 73 22.8 56 56 Calm 30.01 1016 10 16 0.00 0.00
2:53 pm 14:53 Sunny 92 33.3 71 21.7 51 51 Calm 29.98 1015 10 16 0.00 0.00
3:53 pm 15:53 Mostly Sunny 94 34.4 72 22.2 49 49 Calm 29.96 1015 10 16 0.00 0.00
4:53 pm 16:53 Sunny 94 34.4 70 21.1 46 46 WSW 3 6 29.95 1014 10 16 0.00 0.00
5:53 pm 17:53 Mostly Cloudy 92 33.3 71 21.7 51 51 SSE 3 6 29.95 1014 10 16 0.00 0.00
6:53 pm 18:53 Sunny 91 32.8 74 23.3 57 57 Calm 29.93 1014 10 16 0.00 0.00
7:53 pm 19:53 Mostly Sunny 88 31.1 78 25.6 73 73 Calm 29.95 1014 10 16 0.00 0.00
8:53 pm 20:53 Clear 81 27.2 79 26.1 94 94 Calm 29.97 1015 8 13 0.00 0.00
9:53 pm 21:53 Clear 80 26.7 77 25 90 90 Calm 29.97 1015 9 14 0.00 0.00
10:53 pm 22:53 Clear 78 25.6 76 24.4 93 93 Calm 29.98 1015 8 13 0.00 0.00
11:53 pm 23:53 Mostly Clear 76 24.4 76 24.4 100 100 Calm 29.98 1015 8 13 0.00 0.00

Powered by AerisWeather